RORVIK / RYUM current weather conditions

sailwx.info

Wind from 150 at 5 knots

Air temperature 2.0° C
Visibility: greater than 5.4 NM
Dewpoint 1.0° C
Present weather: Showers in the vicinity.

Last reported at 2015-Mar-04 21:20 UTC.
Time now 2015-Mar-05 06:38 UTC

Location: N 64°50' E 011°09'.
View on Google Maps.

See reports from other nearby stations

  
Tides and Currents Weather Stations Pressure Air Temp Water Temp Dewpoint Dewpoint Depression Visibility Wind Speed Wind Dir Waves Ship Positions
date/time (UTC)wind fromknots sea level pressurealtimeterstation pressurevisibilityair tempwater tempwave heightnotes
2015-Mar-04 21:20 150 5 5.4 2.0 Showers in the vicinity.
2015-Mar-04 20:50 5.4 1.0 Showers in the vicinity.
2015-Mar-04 20:20 290 4 5.4 2.0 Showers in the vicinity.
2015-Mar-04 19:50 250 13 5.4 2.0 Light rain showers.
2015-Mar-04 18:50 230 6 5.4 2.0
2015-Mar-04 17:50 240 5 5.4 3.0 Showers in the vicinity.
2015-Mar-04 16:50 180 7 5.4 3.0
2015-Mar-04 16:20 170 8 5.4 2.0
2015-Mar-04 15:50 180 7 5.4 3.0 Showers in the vicinity.
2015-Mar-04 14:50 210 12 5.4 3.0 Showers in the vicinity.
2015-Mar-04 13:50 160 7 5.4 2.0 Light rain showers.
2015-Mar-04 12:50 160 7 5.4 2.0 Light rain showers.
2015-Mar-04 12:20 140 6 5.4 2.0 Light rain showers.
2015-Mar-04 11:50 130 5 5.4 2.0 Showers in the vicinity.
2015-Mar-04 11:20 130 6 5.4 2.0
2015-Mar-04 10:20 130 5 5.4 2.0 Showers in the vicinity.
2015-Mar-04 09:50 130 5 5.4 2.0 Showers in the vicinity.
2015-Mar-04 09:20 150 6 5.4 2.0
2015-Mar-04 08:50 130 5 5.4 1.0
2015-Mar-04 08:20 130 5 5.4 1.0
2015-Mar-04 07:50 120 5 5.4 1.0 Showers in the vicinity.
2015-Mar-04 07:20 110 4 4.9-0.0 Light snow showers.
2015-Mar-04 06:50 110 3 4.3-0.0 Light snow showers.
2015-Mar-04 06:20 100 3 5.4-0.0 Showers in the vicinity.
2015-Mar-04 05:50 100 5 5.4-0.0 Light snow.
2015-Mar-04 05:20 110 4 5.4-0.0
2015-Mar-04 04:50 120 6 5.4 1.0 Light snow.
2015-Mar-03 21:20 080 5 5.4-0.0
2015-Mar-03 20:50 050 3 5.4 1.0
2015-Mar-03 19:50 050 3 5.4-0.0
2015-Mar-03 19:20 080 5 5.4-0.0
2015-Mar-03 18:50 080 3 5.4-0.0
2015-Mar-03 17:50 080 3 1.0
2015-Mar-03 17:20 090 4 -0.0
2015-Mar-03 16:50 120 3 -0.0
2015-Mar-03 16:20 140 3 2.0
2015-Mar-03 15:50 140 4 3.0
2015-Mar-03 15:20 160 5 3.0
2015-Mar-03 14:50 180 6 139.0 3.0
2015-Mar-03 14:20 180 8 5.4 4.0
2015-Mar-03 13:50 190 8 5.4 4.0
2015-Mar-03 13:20 170 9 5.4 4.0
2015-Mar-03 12:50 170 9 4.0
2015-Mar-03 12:20 150 9 4.0
2015-Mar-03 11:50 150 8 4.0
2015-Mar-03 11:20 130 7 4.0
2015-Mar-03 10:20 140 8 3.0
2015-Mar-03 09:50 140 9 3.0
2015-Mar-03 09:20 140 8 3.0
2015-Mar-03 08:20 140 9 1.0
2015-Mar-03 07:50 130 7 1.0
2015-Mar-03 07:20 130 8 1.0
2015-Mar-03 06:50 130 9 1.0
2015-Mar-03 06:20 120 6 1.0